| time (UTC) | temp F | wind direction | speed MPH | gust MPH | rain 1hr in | rain 24hr in | rain mn in | humidity % | barometer mb |
| 20260502163019 | 45 | 120 | 0.0 | 1.0 | 0.00 | 0.02 | 0.00 | 89 | 1011.6 |
| 20260502161515 | 45 | 110 | 0.0 | 1.0 | 0.00 | 0.02 | 0.00 | 88 | 1011.5 |
| 20260502151505 | 46 | 270 | 0.0 | 0.0 | 0.00 | 0.02 | 0.00 | 85 | 1011.8 |
| 20260502123041 | 53 | 261 | 0.0 | 0.0 | 0.00 | 0.02 | 0.02 | 69 | 1011.2 |
| 20260502121543 | 53 | 261 | 0.0 | 1.0 | 0.00 | 0.02 | 0.02 | 67 | 1011.2 |
| 20260502114538 | 54 | 141 | 0.0 | 1.0 | 0.00 | 0.02 | 0.02 | 64 | 1010.8 |
| 20260502113034 | 54 | 22 | 0.0 | 1.0 | 0.00 | 0.02 | 0.02 | 62 | 1010.6 |
| 20260502111536 | 54 | 90 | 0.0 | 0.0 | 0.00 | 0.02 | 0.02 | 59 | 1010.6 |
| 20260502110032 | 55 | 90 | 0.0 | 0.0 | 0.00 | 0.02 | 0.02 | 57 | 1010.4 |
| 20260502104539 | 57 | 89 | 0.0 | 1.0 | 0.00 | 0.03 | 0.02 | 55 | 1010.2 |
| 20260502103027 | 57 | 134 | 0.0 | 0.0 | 0.00 | 0.03 | 0.02 | 54 | 1009.8 |
| 20260502101525 | 57 | 70 | 0.0 | 1.0 | 0.00 | 0.03 | 0.02 | 54 | 1009.5 |
| 20260502091518 | 61 | 238 | 0.0 | 3.0 | 0.00 | 0.07 | 0.02 | 46 | 1008.3 |
| 20260502071501 | 67 | 306 | 1.0 | 9.0 | 0.00 | 0.16 | 0.02 | 35 | 1005.8 |
| 20260502070058 | 68 | 53 | 1.0 | 6.0 | 0.00 | 0.16 | 0.02 | 35 | 1005.6 |
| 20260502064559 | 68 | 38 | 0.0 | 6.0 | 0.00 | 0.17 | 0.02 | 35 | 1005.4 |
| 20260502063057 | 68 | 289 | 1.0 | 11.0 | 0.00 | 0.17 | 0.02 | 35 | 1004.9 |
| 20260502061547 | 68 | 302 | 3.0 | 11.0 | 0.00 | 0.17 | 0.02 | 34 | 1004.2 |
| 20260502060042 | 68 | 283 | 3.0 | 18.0 | 0.01 | 0.17 | 0.02 | 34 | 1003.6 |
| 20260502054540 | 68 | 195 | 5.0 | 14.0 | 0.01 | 0.17 | 0.02 | 35 | 1003.6 |
| 20260502053046 | 67 | 294 | 5.0 | 19.0 | 0.01 | 0.17 | 0.02 | 34 | 1003.4 |
| 20260502051539 | 68 | 37 | 5.0 | 21.0 | 0.01 | 0.17 | 0.02 | 34 | 1003.2 |
| 20260502050035 | 68 | 29 | 4.0 | 20.0 | 0.00 | 0.16 | 0.01 | 35 | 1003.2 |
| 20260502044527 | 68 | 293 | 4.0 | 20.0 | 0.00 | 0.16 | 0.01 | 37 | 1003.1 |
| 20260502043024 | 68 | 58 | 5.0 | 13.0 | 0.00 | 0.16 | 0.01 | 36 | 1002.9 |
| 20260502041523 | 69 | 315 | 4.0 | 20.0 | 0.00 | 0.16 | 0.01 | 36 | 1003.0 |
| 20260502040024 | 69 | 325 | 3.0 | 15.0 | 0.00 | 0.16 | 0.01 | 37 | 1002.8 |
| 20260502034516 | 69 | 56 | 4.0 | 21.0 | 0.00 | 0.18 | 0.01 | 38 | 1002.6 |
| 20260502033014 | 69 | 7 | 4.0 | 13.0 | 0.00 | 0.18 | 0.01 | 36 | 1002.3 |
| 20260502031511 | 69 | 222 | 3.0 | 15.0 | 0.00 | 0.18 | 0.01 | 39 | 1002.0 |
| 20260502030010 | 69 | 88 | 2.0 | 11.0 | 0.00 | 0.34 | 0.01 | 40 | 1001.6 |
| 20260502024505 | 69 | 33 | 3.0 | 14.0 | 0.00 | 0.34 | 0.01 | 38 | 1001.0 |
| 20260502023007 | 69 | 27 | 3.0 | 12.0 | 0.00 | 0.34 | 0.01 | 43 | 1001.3 |
| 20260502021604 | 69 | 289 | 1.0 | 10.0 | 0.00 | 0.34 | 0.01 | 48 | 1000.8 |
| 20260502020057 | 68 | 295 | 5.0 | 14.0 | 0.00 | 0.34 | 0.01 | 46 | 1000.1 |
| 20260502014557 | 69 | 306 | 2.0 | 8.0 | 0.00 | 0.46 | 0.01 | 47 | 999.6 |
| 20260502013057 | 68 | 257 | 3.0 | 9.0 | 0.00 | 0.46 | 0.01 | 45 | 1000.1 |
| 20260502011604 | 66 | 303 | 2.0 | 6.0 | 0.00 | 0.46 | 0.01 | 50 | 1000.7 |
| 20260502010047 | 65 | 28 | 1.0 | 11.0 | 0.00 | 0.46 | 0.01 | 52 | 1000.1 |
| 20260502004556 | 65 | 281 | 1.0 | 9.0 | 0.00 | 0.61 | 0.01 | 55 | 1000.1 |
| 20260502003039 | 65 | 305 | 2.0 | 15.0 | 0.00 | 0.61 | 0.01 | 51 | 999.8 |
| 20260502001538 | 63 | 283 | 0.0 | 6.0 | 0.00 | 0.61 | 0.01 | 55 | 999.2 |
| 20260502000032 | 63 | 86 | 0.0 | 4.0 | 0.00 | 0.61 | 0.01 | 53 | 998.6 |
| 20260501234536 | 61 | 127 | 0.0 | 8.0 | 0.00 | 0.79 | 0.01 | 58 | 997.9 |
| 20260501233025 | 61 | 276 | 0.0 | 8.0 | 0.00 | 0.79 | 0.01 | 50 | 998.2 |
| 20260501231535 | 60 | 257 | 0.0 | 5.0 | 0.00 | 0.79 | 0.01 | 52 | 997.4 |
| 20260501230019 | 60 | 288 | 0.0 | 5.0 | 0.00 | 0.79 | 0.01 | 56 | 997.4 |
| 20260501224517 | 60 | 204 | 1.0 | 6.0 | 0.00 | 0.94 | 0.01 | 51 | 997.3 |
| 20260501223015 | 60 | 316 | 1.0 | 6.0 | 0.00 | 0.94 | 0.01 | 51 | 997.2 |
| 20260501221512 | 59 | 290 | 0.0 | 4.0 | 0.00 | 0.94 | 0.01 | 60 | 995.7 |
| 20260501220008 | 58 | 63 | 0.0 | 11.0 | 0.00 | 0.96 | 0.01 | 49 | 996.6 |
| 20260501214511 | 57 | 273 | 0.0 | 13.0 | 0.00 | 0.96 | 0.01 | 53 | 995.9 |
| 20260501213005 | 56 | 309 | 4.0 | 22.0 | 0.00 | 0.96 | 0.01 | 56 | 995.0 |
| 20260501211505 | 56 | 245 | 3.0 | 16.0 | 0.00 | 0.96 | 0.01 | 55 | 993.9 |
| 20260501210002 | 54 | 258 | 3.0 | 12.0 | 0.00 | 0.98 | 0.01 | 57 | 994.0 |
| 20260501204502 | 54 | 269 | 5.0 | 20.0 | 0.01 | 0.98 | 0.01 | 59 | 993.9 |
| 20260501203101 | 55 | 8 | 5.0 | 20.0 | 0.01 | 0.98 | 0.01 | 60 | 993.5 |
| 20260501201558 | 55 | 337 | 8.0 | 21.0 | 0.01 | 0.98 | 0.01 | 61 | 993.8 |
| 20260501200055 | 55 | 303 | 6.0 | 24.0 | 0.01 | 0.98 | 0.01 | 65 | 994.9 |
| 20260501194552 | 56 | 25 | 6.0 | 24.0 | 0.00 | 0.99 | 0.00 | 67 | 995.9 |
| 20260501193048 | 56 | 299 | 3.0 | 16.0 | 0.00 | 0.99 | 0.00 | 73 | 995.6 |
| 20260501191546 | 57 | 295 | 4.0 | 22.0 | 0.00 | 0.99 | 0.00 | 66 | 995.2 |
| 20260501190056 | 57 | 7 | 3.0 | 16.0 | 0.00 | 0.99 | 0.00 | 69 | 994.1 |
| 20260501184540 | 57 | 315 | 3.0 | 8.0 | 0.00 | 0.99 | 0.00 | 72 | 992.9 |
| 20260501183036 | 56 | 96 | 1.0 | 7.0 | 0.00 | 0.99 | 0.00 | 77 | 992.0 |
| 20260501181534 | 56 | 274 | 3.0 | 9.0 | 0.00 | 0.99 | 0.00 | 78 | 990.7 |
| 20260501180033 | 56 | 266 | 0.0 | 16.0 | 0.00 | 0.99 | 0.00 | 78 | 990.4 |
| 20260501174532 | 57 | 238 | 4.0 | 15.0 | 0.00 | 0.99 | 0.00 | 75 | 989.8 |
| 20260501173031 | 56 | 108 | 1.0 | 6.0 | 0.00 | 0.99 | 0.00 | 77 | 989.7 |
| 20260501171531 | 56 | 259 | 0.0 | 8.0 | 0.00 | 0.99 | 0.00 | 77 | 989.8 |